Location: Alladorf
(49.9620°N, 11.3790°E)
Time: 21:23:37
(UTC+00:00)

COSMOS 2406 - Pass Details

Date: 29 November 2020
Orbit: 840 x 866 km, 71.0° (Epoch: 25 January)

Event Time Altitude Azimuth Distance (km) Brightness Sun altitude
Exits shadow 05:18:20 - 334° (NNW) 2,731 5.5 -13.9°
Reaches altitude 10° 05:18:57 10° 335° (NNW) 2,502 5.3 -13.8°
Maximum altitude 05:24:40 63° 57° (ENE) 958 3.7 -13.0°
Drops below altitude 10° 05:30:23 10° 139° (SE) 2,502 6.7 -12.1°
Sets 05:32:52 0° 142° (SE) 3,437 7.4 -11.7°
